Flag Weather past 2 weeks in New York, New York, U.S.A.

Now
38 °F

Rain. Fog.


Feels Like: 31 °F
Forecast: 36 / 48 °F
Wind: 10 mph from Northeast

Location: New York City - Central Park

Current Time: Nov 26, 2014 at 9:13:39 AM

Latest Report: Nov 26, 2014 at 8:51 AM


Visibility: 3 mi

Pressure: 30.10 "Hg

Humidity: 86%

Dew point: 34 °F

Location of New YorkLocation

Historic Weather in New York — Graph

°F

New York temperature yesterday

Maximum temperature yesterday: 67 °F (at 12:51 AM)
Minimum temperature yesterday: 51 °F (at 9:51 PM)
Average temperature yesterday: 57 °F

Past Weeks' High & Low Weather Summary

 TemperatureHumidityPressure
High69 °F (Nov 24, 1:51 PM)93% (Nov 12, 5:51 AM)30.50 "Hg (Nov 12, 5:51 AM)
Low22 °F (Nov 19, 6:51 AM)27% (Nov 18, 1:51 PM)29.51 "Hg (Nov 17, 6:51 PM)
Average44 °F54%30.05 "Hg
* Reported Nov 11 8:51 AM — Nov 26 8:04 AM, New York, Weather by CustomWeather, © 2014

Note: Actual official high and low records may vary slightly from our data, if they occured in-between our weather recording intervals... More about our weather records

Advertising

New York weather history for previous 24 hours

 ConditionsComfort  
Time TempWeatherWind HumidityBarometerVisibility
8:04 AM
Nov 26
40 °FLight rain. Overcast.12 mph83%30.16 "Hg4 mi
7:51 AM40 °FRain. Overcast.8 mph83%30.16 "Hg6 mi
6:51 AM43 °FLight rain. Overcast.8 mph65%30.14 "Hg8 mi
5:51 AM46 °FMostly cloudy.8 mph56%30.11 "Hg10 mi
4:51 AM48 °FOvercast.7 mph46%30.11 "Hg10 mi
3:51 AM50 °FOvercast.5 mph41%30.17 "Hg10 mi
2:51 AM50 °FPassing clouds.3 mph41%30.20 "Hg10 mi
1:51 AM51 °FClear.6 mph39%30.17 "Hg10 mi
12:51 AM51 °FClear.5 mph39%30.15 "Hg10 mi
11:51 PM
Nov 25
51 °FClear.6 mph39%30.16 "Hg10 mi
10:51 PM51 °FClear.7 mph41%30.15 "Hg10 mi
9:51 PM51 °FClear.8 mph41%30.13 "Hg10 mi
8:51 PM52 °FClear.5 mph41%30.11 "Hg10 mi
7:51 PM52 °FClear.6 mph41%30.08 "Hg10 mi
6:51 PM52 °FClear.N/A40%30.05 "Hg10 mi
5:51 PM53 °FClear.5 mph37%30.03 "Hg10 mi
4:51 PM53 °FClear.9 mph38%30.02 "Hg10 mi
3:51 PM54 °FSunny.No wind35%30.00 "Hg10 mi
2:51 PM54 °FSunny.3 mph35%29.98 "Hg10 mi
1:51 PM54 °FSunny.No wind34%29.98 "Hg10 mi
12:51 PM55 °FPartly sunny.5 mph33%29.98 "Hg10 mi
11:51 AM55 °FSunny.9 mph31%29.98 "Hg10 mi
10:51 AM55 °FSunny.10 mph33%30.00 "Hg10 mi
9:51 AM57 °FScattered clouds.9 mph37%29.99 "Hg10 mi
Weather by CustomWeather, © 2014

See weather overviewHow to use our weather pages